#datetime,building,power
2023-08-17T00:00:00,hld,2.65
2023-08-17T00:01:00,hld,2.65
2023-08-17T00:02:00,hld,2.56
2023-08-17T00:03:00,hld,3.24
2023-08-17T00:04:00,hld,2.56
2023-08-17T00:05:00,hld,2.60
2023-08-17T00:06:00,hld,2.57
2023-08-17T00:07:00,hld,2.59
2023-08-17T00:08:00,hld,2.53
2023-08-17T00:09:00,hld,2.53
2023-08-17T00:10:00,hld,2.53
2023-08-17T00:11:00,hld,2.53
2023-08-17T00:12:00,hld,2.56
2023-08-17T00:13:00,hld,2.50
2023-08-17T00:14:00,hld,2.53
2023-08-17T00:15:00,hld,2.53
2023-08-17T00:16:00,hld,2.54
2023-08-17T00:17:00,hld,2.51
2023-08-17T00:18:00,hld,2.51
2023-08-17T00:19:00,hld,2.54
2023-08-17T00:20:00,hld,2.53
2023-08-17T00:21:00,hld,2.51
2023-08-17T00:22:00,hld,2.52
2023-08-17T00:23:00,hld,2.50
2023-08-17T00:24:00,hld,2.52
2023-08-17T00:25:00,hld,2.51
2023-08-17T00:26:00,hld,2.51
2023-08-17T00:27:00,hld,2.53
2023-08-17T00:28:00,hld,2.51
2023-08-17T00:29:00,hld,2.67
2023-08-17T00:30:00,hld,2.63
2023-08-17T00:31:00,hld,2.63
2023-08-17T00:32:00,hld,2.69
2023-08-17T00:33:00,hld,2.65
2023-08-17T00:34:00,hld,2.64
2023-08-17T00:35:00,hld,2.65
2023-08-17T00:36:00,hld,2.64
2023-08-17T00:37:00,hld,2.66
2023-08-17T00:38:00,hld,2.53
2023-08-17T00:39:00,hld,2.52
2023-08-17T00:40:00,hld,2.57
2023-08-17T00:41:00,hld,2.51
2023-08-17T00:42:00,hld,2.60
2023-08-17T00:43:00,hld,2.52
2023-08-17T00:44:00,hld,2.54
2023-08-17T00:45:00,hld,2.52
2023-08-17T00:46:00,hld,2.53
2023-08-17T00:47:00,hld,2.49
2023-08-17T00:48:00,hld,2.53
2023-08-17T00:49:00,hld,2.54
2023-08-17T00:50:00,hld,2.65
2023-08-17T00:51:00,hld,2.55
2023-08-17T00:52:00,hld,2.53
2023-08-17T00:53:00,hld,2.54
2023-08-17T00:54:00,hld,2.54
2023-08-17T00:55:00,hld,2.55
2023-08-17T00:56:00,hld,2.55
2023-08-17T00:57:00,hld,2.70
2023-08-17T00:58:00,hld,2.66
2023-08-17T00:59:00,hld,2.66
2023-08-17T01:00:00,hld,2.66
2023-08-17T01:01:00,hld,2.65
2023-08-17T01:02:00,hld,2.67
2023-08-17T01:03:00,hld,2.65
2023-08-17T01:04:00,hld,2.76
2023-08-17T01:05:00,hld,2.66
2023-08-17T01:06:00,hld,2.67
2023-08-17T01:07:00,hld,2.65
2023-08-17T01:08:00,hld,2.68
2023-08-17T01:09:00,hld,2.64
2023-08-17T01:10:00,hld,2.64
2023-08-17T01:11:00,hld,2.63
2023-08-17T01:12:00,hld,2.65
2023-08-17T01:13:00,hld,2.64
2023-08-17T01:14:00,hld,2.52
2023-08-17T01:15:00,hld,2.52
2023-08-17T01:16:00,hld,2.54
2023-08-17T01:17:00,hld,2.53
2023-08-17T01:18:00,hld,2.52
2023-08-17T01:19:00,hld,2.55
2023-08-17T01:20:00,hld,2.51
2023-08-17T01:21:00,hld,2.52
2023-08-17T01:22:00,hld,2.53
2023-08-17T01:23:00,hld,2.52
2023-08-17T01:24:00,hld,2.68
2023-08-17T01:25:00,hld,2.65
2023-08-17T01:26:00,hld,2.65
2023-08-17T01:27:00,hld,2.66
2023-08-17T01:28:00,hld,2.64
2023-08-17T01:29:00,hld,2.64
2023-08-17T01:30:00,hld,2.63
2023-08-17T01:31:00,hld,2.64
2023-08-17T01:32:00,hld,2.63
2023-08-17T01:33:00,hld,2.52
2023-08-17T01:34:00,hld,2.54
2023-08-17T01:35:00,hld,2.52
2023-08-17T01:36:00,hld,2.53
2023-08-17T01:37:00,hld,2.53
2023-08-17T01:38:00,hld,2.52
2023-08-17T01:39:00,hld,2.51
2023-08-17T01:40:00,hld,2.51
2023-08-17T01:41:00,hld,2.53
2023-08-17T01:42:00,hld,2.53
2023-08-17T01:43:00,hld,11.02
2023-08-17T01:44:00,hld,10.87
2023-08-17T01:45:00,hld,10.70
2023-08-17T01:46:00,hld,10.60
2023-08-17T01:47:00,hld,2.51
2023-08-17T01:48:00,hld,2.52
2023-08-17T01:49:00,hld,2.50
2023-08-17T01:50:00,hld,2.50
2023-08-17T01:51:00,hld,2.50
2023-08-17T01:52:00,hld,2.50
2023-08-17T01:53:00,hld,2.52
2023-08-17T01:54:00,hld,2.50
2023-08-17T01:55:00,hld,2.50
2023-08-17T01:56:00,hld,2.50
2023-08-17T01:57:00,hld,2.53
2023-08-17T01:58:00,hld,2.51
2023-08-17T01:59:00,hld,2.50
2023-08-17T02:00:00,hld,2.51
2023-08-17T02:01:00,hld,3.23
2023-08-17T02:02:00,hld,2.52
2023-08-17T02:03:00,hld,2.49
2023-08-17T02:04:00,hld,2.52
2023-08-17T02:05:00,hld,2.63
2023-08-17T02:06:00,hld,2.61
2023-08-17T02:07:00,hld,2.63
2023-08-17T02:08:00,hld,2.60
2023-08-17T02:09:00,hld,2.62
2023-08-17T02:10:00,hld,2.63
2023-08-17T02:11:00,hld,2.61
2023-08-17T02:12:00,hld,3.21
2023-08-17T02:13:00,hld,2.61
2023-08-17T02:14:00,hld,2.61
2023-08-17T02:15:00,hld,2.62
2023-08-17T02:16:00,hld,2.62
2023-08-17T02:17:00,hld,2.60
2023-08-17T02:18:00,hld,2.50
2023-08-17T02:19:00,hld,2.50
2023-08-17T02:20:00,hld,2.52
2023-08-17T02:21:00,hld,2.50
2023-08-17T02:22:00,hld,2.51
2023-08-17T02:23:00,hld,2.51
2023-08-17T02:24:00,hld,2.49
2023-08-17T02:25:00,hld,2.53
2023-08-17T02:26:00,hld,2.49
2023-08-17T02:27:00,hld,2.63
2023-08-17T02:28:00,hld,2.63
2023-08-17T02:29:00,hld,2.63
2023-08-17T02:30:00,hld,2.63
2023-08-17T02:31:00,hld,2.63
2023-08-17T02:32:00,hld,2.63
2023-08-17T02:33:00,hld,2.63
2023-08-17T02:34:00,hld,2.62
2023-08-17T02:35:00,hld,2.64
2023-08-17T02:36:00,hld,2.60
2023-08-17T02:37:00,hld,4.29
2023-08-17T02:38:00,hld,2.62
2023-08-17T02:39:00,hld,2.61
2023-08-17T02:40:00,hld,2.61
2023-08-17T02:41:00,hld,2.62
2023-08-17T02:42:00,hld,2.61
2023-08-17T02:43:00,hld,2.49
2023-08-17T02:44:00,hld,2.49
2023-08-17T02:45:00,hld,2.81
2023-08-17T02:46:00,hld,2.49
2023-08-17T02:47:00,hld,2.49
2023-08-17T02:48:00,hld,2.49
2023-08-17T02:49:00,hld,2.50
2023-08-17T02:50:00,hld,2.48
2023-08-17T02:51:00,hld,2.50
2023-08-17T02:52:00,hld,2.51
2023-08-17T02:53:00,hld,3.06
2023-08-17T02:54:00,hld,2.49
2023-08-17T02:55:00,hld,2.47
2023-08-17T02:56:00,hld,2.50
2023-08-17T02:57:00,hld,2.50
2023-08-17T02:58:00,hld,2.49
2023-08-17T02:59:00,hld,2.49
2023-08-17T03:00:00,hld,2.48
2023-08-17T03:01:00,hld,2.50
2023-08-17T03:02:00,hld,2.50
2023-08-17T03:03:00,hld,2.50
2023-08-17T03:04:00,hld,2.49
2023-08-17T03:05:00,hld,2.50
2023-08-17T03:06:00,hld,2.49
2023-08-17T03:07:00,hld,2.50
2023-08-17T03:08:00,hld,2.49
2023-08-17T03:09:00,hld,2.49
2023-08-17T03:10:00,hld,2.49
2023-08-17T03:11:00,hld,3.00
2023-08-17T03:12:00,hld,2.63
2023-08-17T03:13:00,hld,2.63
2023-08-17T03:14:00,hld,2.63
2023-08-17T03:15:00,hld,2.61
2023-08-17T03:16:00,hld,2.64
2023-08-17T03:17:00,hld,2.64
2023-08-17T03:18:00,hld,2.62
2023-08-17T03:19:00,hld,2.65
2023-08-17T03:20:00,hld,2.56
2023-08-17T03:21:00,hld,2.49
2023-08-17T03:22:00,hld,2.50
2023-08-17T03:23:00,hld,2.49
2023-08-17T03:24:00,hld,2.48
2023-08-17T03:25:00,hld,2.48
2023-08-17T03:26:00,hld,3.23
2023-08-17T03:27:00,hld,2.51
2023-08-17T03:28:00,hld,2.50
2023-08-17T03:29:00,hld,2.49
2023-08-17T03:30:00,hld,2.47
2023-08-17T03:31:00,hld,2.50
2023-08-17T03:32:00,hld,2.52
2023-08-17T03:33:00,hld,2.49
2023-08-17T03:34:00,hld,2.50
2023-08-17T03:35:00,hld,2.51
2023-08-17T03:36:00,hld,2.49
2023-08-17T03:37:00,hld,3.12
2023-08-17T03:38:00,hld,2.63
2023-08-17T03:39:00,hld,2.63
2023-08-17T03:40:00,hld,2.66
2023-08-17T03:41:00,hld,2.65
2023-08-17T03:42:00,hld,2.64
2023-08-17T03:43:00,hld,2.62
2023-08-17T03:44:00,hld,2.65
2023-08-17T03:45:00,hld,2.65
2023-08-17T03:46:00,hld,2.69
2023-08-17T03:47:00,hld,2.65
2023-08-17T03:48:00,hld,2.62
2023-08-17T03:49:00,hld,2.60
2023-08-17T03:50:00,hld,2.59
2023-08-17T03:51:00,hld,2.59
2023-08-17T03:52:00,hld,2.67
2023-08-17T03:53:00,hld,2.65
2023-08-17T03:54:00,hld,2.64
2023-08-17T03:55:00,hld,2.52
2023-08-17T03:56:00,hld,2.52
2023-08-17T03:57:00,hld,2.54
2023-08-17T03:58:00,hld,2.52
2023-08-17T03:59:00,hld,2.52
2023-08-17T04:00:00,hld,2.56
2023-08-17T04:01:00,hld,2.66
2023-08-17T04:02:00,hld,2.53
2023-08-17T04:03:00,hld,2.57
2023-08-17T04:04:00,hld,2.78
2023-08-17T04:05:00,hld,3.06
2023-08-17T04:06:00,hld,3.06
2023-08-17T04:07:00,hld,3.05
2023-08-17T04:08:00,hld,3.03
2023-08-17T04:09:00,hld,7.19
2023-08-17T04:10:00,hld,7.20
2023-08-17T04:11:00,hld,7.19
2023-08-17T04:12:00,hld,7.20
2023-08-17T04:13:00,hld,8.16
2023-08-17T04:14:00,hld,8.31
2023-08-17T04:15:00,hld,5.15
2023-08-17T04:16:00,hld,13.09
2023-08-17T04:17:00,hld,18.35
2023-08-17T04:18:00,hld,19.17
2023-08-17T04:19:00,hld,17.64
2023-08-17T04:20:00,hld,18.12
2023-08-17T04:21:00,hld,17.74
2023-08-17T04:22:00,hld,17.88
2023-08-17T04:23:00,hld,17.71
2023-08-17T04:24:00,hld,17.86
2023-08-17T04:25:00,hld,8.19
2023-08-17T04:26:00,hld,8.08
2023-08-17T04:27:00,hld,8.03
2023-08-17T04:28:00,hld,8.13
2023-08-17T04:29:00,hld,8.13
2023-08-17T04:30:00,hld,7.20
2023-08-17T04:31:00,hld,7.19
2023-08-17T04:32:00,hld,7.19
2023-08-17T04:33:00,hld,7.18
2023-08-17T04:34:00,hld,7.21
2023-08-17T04:35:00,hld,7.17
2023-08-17T04:36:00,hld,7.21
2023-08-17T04:37:00,hld,7.03
2023-08-17T04:38:00,hld,7.03
2023-08-17T04:39:00,hld,7.24
2023-08-17T04:40:00,hld,11.48
2023-08-17T04:41:00,hld,11.51
2023-08-17T04:42:00,hld,11.46
2023-08-17T04:43:00,hld,11.81
2023-08-17T04:44:00,hld,11.34
2023-08-17T04:45:00,hld,3.54
2023-08-17T04:46:00,hld,3.46
2023-08-17T04:47:00,hld,3.45
2023-08-17T04:48:00,hld,3.49
2023-08-17T04:49:00,hld,3.42
2023-08-17T04:50:00,hld,3.37
2023-08-17T04:51:00,hld,3.37
2023-08-17T04:52:00,hld,4.50
2023-08-17T04:53:00,hld,3.34
2023-08-17T04:54:00,hld,3.32
2023-08-17T04:55:00,hld,3.32
2023-08-17T04:56:00,hld,3.28
2023-08-17T04:57:00,hld,3.22
2023-08-17T04:58:00,hld,3.26
2023-08-17T04:59:00,hld,3.13
2023-08-17T05:00:00,hld,3.33
2023-08-17T05:01:00,hld,3.10
2023-08-17T05:02:00,hld,3.08
2023-08-17T05:03:00,hld,3.10
2023-08-17T05:04:00,hld,3.07
2023-08-17T05:05:00,hld,2.97
2023-08-17T05:06:00,hld,2.95
2023-08-17T05:07:00,hld,2.96
2023-08-17T05:08:00,hld,3.09
2023-08-17T05:09:00,hld,3.09
2023-08-17T05:10:00,hld,4.47
2023-08-17T05:11:00,hld,2.73
2023-08-17T05:12:00,hld,2.73
2023-08-17T05:13:00,hld,2.73
2023-08-17T05:14:00,hld,2.73
2023-08-17T05:15:00,hld,2.73
2023-08-17T05:16:00,hld,2.72
2023-08-17T05:17:00,hld,2.75
2023-08-17T05:18:00,hld,2.72
2023-08-17T05:19:00,hld,2.73
2023-08-17T05:20:00,hld,2.72
2023-08-17T05:21:00,hld,2.72
2023-08-17T05:22:00,hld,2.73
2023-08-17T05:23:00,hld,2.60
2023-08-17T05:24:00,hld,2.59
2023-08-17T05:25:00,hld,2.60
2023-08-17T05:26:00,hld,2.59
2023-08-17T05:27:00,hld,2.58
2023-08-17T05:28:00,hld,2.58
2023-08-17T05:29:00,hld,2.59
2023-08-17T05:30:00,hld,2.60
2023-08-17T05:31:00,hld,2.59
2023-08-17T05:32:00,hld,2.58
2023-08-17T05:33:00,hld,2.59
2023-08-17T05:34:00,hld,2.62
2023-08-17T05:35:00,hld,2.60
2023-08-17T05:36:00,hld,2.62
2023-08-17T05:37:00,hld,11.17
2023-08-17T05:38:00,hld,10.99
2023-08-17T05:39:00,hld,10.83
2023-08-17T05:40:00,hld,10.72
2023-08-17T05:41:00,hld,10.58
2023-08-17T05:42:00,hld,2.59
2023-08-17T05:43:00,hld,2.99
2023-08-17T05:44:00,hld,2.58
2023-08-17T05:45:00,hld,2.61
2023-08-17T05:46:00,hld,2.59
2023-08-17T05:47:00,hld,2.59
2023-08-17T05:48:00,hld,2.58
2023-08-17T05:49:00,hld,2.61
2023-08-17T05:50:00,hld,2.60
2023-08-17T05:51:00,hld,2.45
2023-08-17T05:52:00,hld,2.49
2023-08-17T05:53:00,hld,2.61
2023-08-17T05:54:00,hld,2.61
2023-08-17T05:55:00,hld,2.60
2023-08-17T05:56:00,hld,2.93
2023-08-17T05:57:00,hld,2.62
2023-08-17T05:58:00,hld,2.59
2023-08-17T05:59:00,hld,2.37
2023-08-17T06:00:00,hld,2.36
2023-08-17T06:01:00,hld,2.38
2023-08-17T06:02:00,hld,2.27
2023-08-17T06:03:00,hld,2.24
2023-08-17T06:04:00,hld,2.26
2023-08-17T06:05:00,hld,2.25
2023-08-17T06:06:00,hld,2.25
2023-08-17T06:07:00,hld,2.25
2023-08-17T06:08:00,hld,2.24
2023-08-17T06:09:00,hld,2.26
2023-08-17T06:10:00,hld,2.24
2023-08-17T06:11:00,hld,2.26
2023-08-17T06:12:00,hld,2.23
2023-08-17T06:13:00,hld,2.26
2023-08-17T06:14:00,hld,2.28
2023-08-17T06:15:00,hld,2.25
2023-08-17T06:16:00,hld,2.44
2023-08-17T06:17:00,hld,2.40
2023-08-17T06:18:00,hld,2.39
2023-08-17T06:19:00,hld,2.39
2023-08-17T06:20:00,hld,2.37
2023-08-17T06:21:00,hld,2.38
2023-08-17T06:22:00,hld,2.37
2023-08-17T06:23:00,hld,2.44
2023-08-17T06:24:00,hld,2.37
2023-08-17T06:25:00,hld,2.36
2023-08-17T06:26:00,hld,2.38
2023-08-17T06:27:00,hld,2.36
2023-08-17T06:28:00,hld,2.36
2023-08-17T06:29:00,hld,2.38
2023-08-17T06:30:00,hld,2.37
2023-08-17T06:31:00,hld,2.36
2023-08-17T06:32:00,hld,2.36
2023-08-17T06:33:00,hld,2.25
2023-08-17T06:34:00,hld,2.25
2023-08-17T06:35:00,hld,2.26
2023-08-17T06:36:00,hld,2.24
2023-08-17T06:37:00,hld,2.25
2023-08-17T06:38:00,hld,2.24
2023-08-17T06:39:00,hld,2.24
2023-08-17T06:40:00,hld,2.24
2023-08-17T06:41:00,hld,2.25
2023-08-17T06:42:00,hld,2.25
2023-08-17T06:43:00,hld,2.39
2023-08-17T06:44:00,hld,2.36
2023-08-17T06:45:00,hld,2.37
2023-08-17T06:46:00,hld,2.36
2023-08-17T06:47:00,hld,2.38
2023-08-17T06:48:00,hld,2.36
2023-08-17T06:49:00,hld,2.37
2023-08-17T06:50:00,hld,3.80
2023-08-17T06:51:00,hld,2.36
2023-08-17T06:52:00,hld,2.24
2023-08-17T06:53:00,hld,3.06
2023-08-17T06:54:00,hld,2.23
2023-08-17T06:55:00,hld,2.27
2023-08-17T06:56:00,hld,2.22
2023-08-17T06:57:00,hld,2.25
2023-08-17T06:58:00,hld,2.24
2023-08-17T06:59:00,hld,2.52
2023-08-17T07:00:00,hld,2.23
2023-08-17T07:01:00,hld,2.22
2023-08-17T07:02:00,hld,2.23
2023-08-17T07:03:00,hld,2.25
2023-08-17T07:04:00,hld,2.90
2023-08-17T07:05:00,hld,2.24
2023-08-17T07:06:00,hld,2.50
2023-08-17T07:07:00,hld,2.24
2023-08-17T07:08:00,hld,2.23
2023-08-17T07:09:00,hld,2.23
2023-08-17T07:10:00,hld,2.24
2023-08-17T07:11:00,hld,2.23
2023-08-17T07:12:00,hld,2.25
2023-08-17T07:13:00,hld,2.23
2023-08-17T07:14:00,hld,2.22
2023-08-17T07:15:00,hld,2.24
2023-08-17T07:16:00,hld,2.25
2023-08-17T07:17:00,hld,2.94
2023-08-17T07:18:00,hld,2.24
2023-08-17T07:19:00,hld,2.22
2023-08-17T07:20:00,hld,2.62
2023-08-17T07:21:00,hld,2.23
2023-08-17T07:22:00,hld,2.25
2023-08-17T07:23:00,hld,2.23
2023-08-17T07:24:00,hld,2.24
2023-08-17T07:25:00,hld,2.35
2023-08-17T07:26:00,hld,2.39
2023-08-17T07:27:00,hld,2.40
2023-08-17T07:28:00,hld,2.38
2023-08-17T07:29:00,hld,2.38
2023-08-17T07:30:00,hld,2.40
2023-08-17T07:31:00,hld,2.36
2023-08-17T07:32:00,hld,2.37
2023-08-17T07:33:00,hld,2.36
2023-08-17T07:34:00,hld,2.38
2023-08-17T07:35:00,hld,2.36
2023-08-17T07:36:00,hld,2.36
2023-08-17T07:37:00,hld,2.37
2023-08-17T07:38:00,hld,2.38
2023-08-17T07:39:00,hld,2.34
2023-08-17T07:40:00,hld,2.24
2023-08-17T07:41:00,hld,4.41
2023-08-17T07:42:00,hld,4.62
2023-08-17T07:43:00,hld,4.79
2023-08-17T07:44:00,hld,4.64
2023-08-17T07:45:00,hld,4.71
2023-08-17T07:46:00,hld,4.66
2023-08-17T07:47:00,hld,4.71
2023-08-17T07:48:00,hld,4.63
2023-08-17T07:49:00,hld,4.76
2023-08-17T07:50:00,hld,4.86
2023-08-17T07:51:00,hld,4.86
2023-08-17T07:52:00,hld,4.92
2023-08-17T07:53:00,hld,4.90
2023-08-17T07:54:00,hld,4.96
2023-08-17T07:55:00,hld,4.93
2023-08-17T07:56:00,hld,5.24
2023-08-17T07:57:00,hld,5.19
2023-08-17T07:58:00,hld,5.21
2023-08-17T07:59:00,hld,5.85
2023-08-17T08:00:00,hld,5.25
2023-08-17T08:01:00,hld,5.25
2023-08-17T08:02:00,hld,5.64
2023-08-17T08:03:00,hld,5.09
2023-08-17T08:04:00,hld,5.91
2023-08-17T08:05:00,hld,5.46
2023-08-17T08:06:00,hld,5.36
2023-08-17T08:07:00,hld,5.37
2023-08-17T08:08:00,hld,5.43
2023-08-17T08:09:00,hld,5.51
2023-08-17T08:10:00,hld,5.08
2023-08-17T08:11:00,hld,5.03
2023-08-17T08:12:00,hld,4.99
2023-08-17T08:13:00,hld,4.99
2023-08-17T08:14:00,hld,5.11
2023-08-17T08:15:00,hld,5.12
2023-08-17T08:16:00,hld,5.07
2023-08-17T08:17:00,hld,5.11
2023-08-17T08:18:00,hld,5.12
2023-08-17T08:19:00,hld,6.36
2023-08-17T08:20:00,hld,6.37
2023-08-17T08:21:00,hld,12.96
2023-08-17T08:22:00,hld,19.55
2023-08-17T08:23:00,hld,18.71
2023-08-17T08:24:00,hld,22.93
2023-08-17T08:25:00,hld,24.28
2023-08-17T08:26:00,hld,23.01
2023-08-17T08:27:00,hld,22.96
2023-08-17T08:28:00,hld,23.00
2023-08-17T08:29:00,hld,19.01
2023-08-17T08:30:00,hld,15.38
2023-08-17T08:31:00,hld,9.27
2023-08-17T08:32:00,hld,9.21
2023-08-17T08:33:00,hld,9.20
2023-08-17T08:34:00,hld,9.14
2023-08-17T08:35:00,hld,9.28
2023-08-17T08:36:00,hld,9.21
2023-08-17T08:37:00,hld,9.20
2023-08-17T08:38:00,hld,9.12
2023-08-17T08:39:00,hld,9.07
2023-08-17T08:40:00,hld,9.18
2023-08-17T08:41:00,hld,9.22
2023-08-17T08:42:00,hld,9.19
2023-08-17T08:43:00,hld,9.20
2023-08-17T08:44:00,hld,10.12
2023-08-17T08:45:00,hld,15.19
2023-08-17T08:46:00,hld,15.26
2023-08-17T08:47:00,hld,15.16
2023-08-17T08:48:00,hld,15.12
2023-08-17T08:49:00,hld,15.06
2023-08-17T08:50:00,hld,14.89
2023-08-17T08:51:00,hld,14.85
2023-08-17T08:52:00,hld,13.85
2023-08-17T08:53:00,hld,14.42
2023-08-17T08:54:00,hld,14.29
2023-08-17T08:55:00,hld,14.16
2023-08-17T08:56:00,hld,14.30
2023-08-17T08:57:00,hld,9.07
2023-08-17T08:58:00,hld,9.74
2023-08-17T08:59:00,hld,9.03
2023-08-17T09:00:00,hld,9.01
2023-08-17T09:01:00,hld,9.07
2023-08-17T09:02:00,hld,9.06
2023-08-17T09:03:00,hld,9.04
2023-08-17T09:04:00,hld,9.05
2023-08-17T09:05:00,hld,9.08
2023-08-17T09:06:00,hld,14.08
2023-08-17T09:07:00,hld,14.15
2023-08-17T09:08:00,hld,14.29
2023-08-17T09:09:00,hld,13.93
2023-08-17T09:10:00,hld,13.96
2023-08-17T09:11:00,hld,14.04
2023-08-17T09:12:00,hld,14.28
2023-08-17T09:13:00,hld,14.32
2023-08-17T09:14:00,hld,14.76
2023-08-17T09:15:00,hld,14.48
2023-08-17T09:16:00,hld,9.37
2023-08-17T09:17:00,hld,9.41
2023-08-17T09:18:00,hld,9.40
2023-08-17T09:19:00,hld,9.38
2023-08-17T09:20:00,hld,11.40
2023-08-17T09:21:00,hld,9.49
2023-08-17T09:22:00,hld,9.33
2023-08-17T09:23:00,hld,9.47
2023-08-17T09:24:00,hld,9.51
2023-08-17T09:25:00,hld,14.54
2023-08-17T09:26:00,hld,14.58
2023-08-17T09:27:00,hld,14.58
2023-08-17T09:28:00,hld,14.57
2023-08-17T09:29:00,hld,14.59
2023-08-17T09:30:00,hld,14.68
2023-08-17T09:31:00,hld,14.45
2023-08-17T09:32:00,hld,14.65
2023-08-17T09:33:00,hld,14.49
2023-08-17T09:34:00,hld,9.23
2023-08-17T09:35:00,hld,9.20
2023-08-17T09:36:00,hld,9.20
2023-08-17T09:37:00,hld,9.21
2023-08-17T09:38:00,hld,9.18
2023-08-17T09:39:00,hld,9.21
2023-08-17T09:40:00,hld,9.16
2023-08-17T09:41:00,hld,9.16
2023-08-17T09:42:00,hld,9.17
2023-08-17T09:43:00,hld,17.89
2023-08-17T09:44:00,hld,22.71
2023-08-17T09:45:00,hld,22.73
2023-08-17T09:46:00,hld,22.65
2023-08-17T09:47:00,hld,22.73
2023-08-17T09:48:00,hld,14.78
2023-08-17T09:49:00,hld,14.71
2023-08-17T09:50:00,hld,14.77
2023-08-17T09:51:00,hld,14.69
2023-08-17T09:52:00,hld,15.48
2023-08-17T09:53:00,hld,9.47
2023-08-17T09:54:00,hld,9.40
2023-08-17T09:55:00,hld,9.47
2023-08-17T09:56:00,hld,9.48
2023-08-17T09:57:00,hld,9.48
2023-08-17T09:58:00,hld,9.49
2023-08-17T09:59:00,hld,9.58
2023-08-17T10:00:00,hld,9.86
2023-08-17T10:01:00,hld,9.87
2023-08-17T10:02:00,hld,14.93
2023-08-17T10:03:00,hld,15.25
2023-08-17T10:04:00,hld,15.38
2023-08-17T10:05:00,hld,15.53
2023-08-17T10:06:00,hld,15.29
2023-08-17T10:07:00,hld,15.72
2023-08-17T10:08:00,hld,15.74
2023-08-17T10:09:00,hld,15.50
2023-08-17T10:10:00,hld,15.73
2023-08-17T10:11:00,hld,15.61
2023-08-17T10:12:00,hld,11.97
2023-08-17T10:13:00,hld,11.60
2023-08-17T10:14:00,hld,11.41
2023-08-17T10:15:00,hld,11.52
2023-08-17T10:16:00,hld,11.58
2023-08-17T10:17:00,hld,11.44
2023-08-17T10:18:00,hld,11.63
2023-08-17T10:19:00,hld,11.85
2023-08-17T10:20:00,hld,11.58
2023-08-17T10:21:00,hld,15.11
2023-08-17T10:22:00,hld,14.47
2023-08-17T10:23:00,hld,14.34
2023-08-17T10:24:00,hld,14.43
2023-08-17T10:25:00,hld,14.87
2023-08-17T10:26:00,hld,14.87
2023-08-17T10:27:00,hld,14.82
2023-08-17T10:28:00,hld,15.14
2023-08-17T10:29:00,hld,15.22
2023-08-17T10:30:00,hld,15.37
2023-08-17T10:31:00,hld,11.16
2023-08-17T10:32:00,hld,11.37
2023-08-17T10:33:00,hld,11.96
2023-08-17T10:34:00,hld,11.27
2023-08-17T10:35:00,hld,11.29
2023-08-17T10:36:00,hld,11.30
2023-08-17T10:37:00,hld,11.47
2023-08-17T10:38:00,hld,11.63
2023-08-17T10:39:00,hld,11.74
2023-08-17T10:40:00,hld,14.59
2023-08-17T10:41:00,hld,14.47
2023-08-17T10:42:00,hld,14.60
2023-08-17T10:43:00,hld,14.36
2023-08-17T10:44:00,hld,14.56
2023-08-17T10:45:00,hld,14.64
2023-08-17T10:46:00,hld,14.62
2023-08-17T10:47:00,hld,14.60
2023-08-17T10:48:00,hld,14.69
2023-08-17T10:49:00,hld,14.72
2023-08-17T10:50:00,hld,11.15
2023-08-17T10:51:00,hld,11.46
2023-08-17T10:52:00,hld,11.74
2023-08-17T10:53:00,hld,11.70
2023-08-17T10:54:00,hld,11.24
2023-08-17T10:55:00,hld,11.54
2023-08-17T10:56:00,hld,15.54
2023-08-17T10:57:00,hld,15.43
2023-08-17T10:58:00,hld,15.40
2023-08-17T10:59:00,hld,18.27
2023-08-17T11:00:00,hld,20.07
2023-08-17T11:01:00,hld,14.34
2023-08-17T11:02:00,hld,14.66
2023-08-17T11:03:00,hld,15.71
2023-08-17T11:04:00,hld,15.15
2023-08-17T11:05:00,hld,15.54
2023-08-17T11:06:00,hld,16.55
2023-08-17T11:07:00,hld,15.75
2023-08-17T11:08:00,hld,15.97
2023-08-17T11:09:00,hld,16.06
2023-08-17T11:10:00,hld,15.85
2023-08-17T11:11:00,hld,11.70
2023-08-17T11:12:00,hld,11.34
2023-08-17T11:13:00,hld,11.45
2023-08-17T11:14:00,hld,10.12
2023-08-17T11:15:00,hld,9.64
2023-08-17T11:16:00,hld,9.74
2023-08-17T11:17:00,hld,9.69
2023-08-17T11:18:00,hld,9.71
2023-08-17T11:19:00,hld,14.37
2023-08-17T11:20:00,hld,15.11
2023-08-17T11:21:00,hld,15.05
2023-08-17T11:22:00,hld,15.36
2023-08-17T11:23:00,hld,15.30
2023-08-17T11:24:00,hld,15.44
2023-08-17T11:25:00,hld,14.94
2023-08-17T11:26:00,hld,14.68
2023-08-17T11:27:00,hld,15.09
2023-08-17T11:28:00,hld,15.09
2023-08-17T11:29:00,hld,15.13
2023-08-17T11:30:00,hld,14.96
2023-08-17T11:31:00,hld,9.54
2023-08-17T11:32:00,hld,9.65
2023-08-17T11:33:00,hld,11.52
2023-08-17T11:34:00,hld,11.59
2023-08-17T11:35:00,hld,11.70
2023-08-17T11:36:00,hld,11.80
2023-08-17T11:37:00,hld,11.98
2023-08-17T11:38:00,hld,11.54
2023-08-17T11:39:00,hld,8.69
2023-08-17T11:40:00,hld,8.77
2023-08-17T11:41:00,hld,8.52
2023-08-17T11:42:00,hld,8.71
2023-08-17T11:43:00,hld,7.01
2023-08-17T11:44:00,hld,7.02
2023-08-17T11:45:00,hld,7.04
2023-08-17T11:46:00,hld,7.05
2023-08-17T11:47:00,hld,7.01
2023-08-17T11:48:00,hld,8.89
2023-08-17T11:49:00,hld,8.87
2023-08-17T11:50:00,hld,9.06
2023-08-17T11:51:00,hld,9.09
2023-08-17T11:52:00,hld,9.12
2023-08-17T11:53:00,hld,8.69
2023-08-17T11:54:00,hld,8.50
2023-08-17T11:55:00,hld,8.27
2023-08-17T11:56:00,hld,8.51
2023-08-17T11:57:00,hld,8.51
2023-08-17T11:58:00,hld,6.74
2023-08-17T11:59:00,hld,6.76
2023-08-17T12:00:00,hld,6.67
2023-08-17T12:01:00,hld,6.65
2023-08-17T12:02:00,hld,8.23
2023-08-17T12:03:00,hld,8.06
2023-08-17T12:04:00,hld,8.32
2023-08-17T12:05:00,hld,8.33
2023-08-17T12:06:00,hld,8.64
2023-08-17T12:07:00,hld,8.38
2023-08-17T12:08:00,hld,8.28
2023-08-17T12:09:00,hld,8.12
2023-08-17T12:10:00,hld,8.35
2023-08-17T12:11:00,hld,8.35
2023-08-17T12:12:00,hld,6.59
2023-08-17T12:13:00,hld,6.43
2023-08-17T12:14:00,hld,6.37
2023-08-17T12:15:00,hld,6.35
2023-08-17T12:16:00,hld,6.32
2023-08-17T12:17:00,hld,6.31
2023-08-17T12:18:00,hld,6.33
2023-08-17T12:19:00,hld,6.34
2023-08-17T12:20:00,hld,8.18
2023-08-17T12:21:00,hld,8.18
2023-08-17T12:22:00,hld,8.19
2023-08-17T12:23:00,hld,8.47
2023-08-17T12:24:00,hld,8.46
2023-08-17T12:25:00,hld,7.87
2023-08-17T12:26:00,hld,8.02
2023-08-17T12:27:00,hld,8.14
2023-08-17T12:28:00,hld,7.99
2023-08-17T12:29:00,hld,8.14
2023-08-17T12:30:00,hld,7.10
2023-08-17T12:31:00,hld,6.41
2023-08-17T12:32:00,hld,6.14
2023-08-17T12:33:00,hld,6.15
2023-08-17T12:34:00,hld,6.14
2023-08-17T12:35:00,hld,6.15
2023-08-17T12:36:00,hld,6.12
2023-08-17T12:37:00,hld,6.11
2023-08-17T12:38:00,hld,6.12
2023-08-17T12:39:00,hld,6.34
2023-08-17T12:40:00,hld,6.31
2023-08-17T12:41:00,hld,6.34
2023-08-17T12:42:00,hld,6.35
2023-08-17T12:43:00,hld,7.04
2023-08-17T12:44:00,hld,6.36
2023-08-17T12:45:00,hld,6.43
2023-08-17T12:46:00,hld,6.40
2023-08-17T12:47:00,hld,8.23
2023-08-17T12:48:00,hld,8.11
2023-08-17T12:49:00,hld,9.15
2023-08-17T12:50:00,hld,8.34
2023-08-17T12:51:00,hld,8.53
2023-08-17T12:52:00,hld,8.18
2023-08-17T12:53:00,hld,8.18
2023-08-17T12:54:00,hld,6.22
2023-08-17T12:55:00,hld,6.40
2023-08-17T12:56:00,hld,6.40
2023-08-17T12:57:00,hld,6.42
2023-08-17T12:58:00,hld,6.39
2023-08-17T12:59:00,hld,6.99
2023-08-17T13:00:00,hld,6.39
2023-08-17T13:01:00,hld,6.37
2023-08-17T13:02:00,hld,6.34
2023-08-17T13:03:00,hld,6.39
2023-08-17T13:04:00,hld,6.42
2023-08-17T13:05:00,hld,6.38
2023-08-17T13:06:00,hld,6.37
2023-08-17T13:07:00,hld,6.40
2023-08-17T13:08:00,hld,6.40
2023-08-17T13:09:00,hld,6.35
2023-08-17T13:10:00,hld,6.32
2023-08-17T13:11:00,hld,6.40
2023-08-17T13:12:00,hld,6.33
2023-08-17T13:13:00,hld,6.27
2023-08-17T13:14:00,hld,6.17
2023-08-17T13:15:00,hld,6.22
2023-08-17T13:16:00,hld,6.14
2023-08-17T13:17:00,hld,6.16
2023-08-17T13:18:00,hld,6.76
2023-08-17T13:19:00,hld,6.50
2023-08-17T13:20:00,hld,6.57
2023-08-17T13:21:00,hld,6.59
2023-08-17T13:22:00,hld,6.58
2023-08-17T13:23:00,hld,6.53
2023-08-17T13:24:00,hld,6.50
2023-08-17T13:25:00,hld,6.53
2023-08-17T13:26:00,hld,6.54
2023-08-17T13:27:00,hld,6.52
2023-08-17T13:28:00,hld,6.43
2023-08-17T13:29:00,hld,6.49
2023-08-17T13:30:00,hld,6.66
2023-08-17T13:31:00,hld,6.54
2023-08-17T13:32:00,hld,6.48
2023-08-17T13:33:00,hld,6.52
2023-08-17T13:34:00,hld,6.67
2023-08-17T13:35:00,hld,6.66
2023-08-17T13:36:00,hld,6.67
2023-08-17T13:37:00,hld,6.60
2023-08-17T13:38:00,hld,6.57
2023-08-17T13:39:00,hld,7.33